Погода в Ново-Полтавском

Россия / Кабардино-Балкарская Республика     43°41′29″N   43°58′36″E
темп.,
°C
ветер,
м/с
пор.,
м/с
влажн.,
%
обл.,
%
осадки,
мм/ч
давл.,
гПа
погр.,
м
22 апреля, чт
чт2200:00+12всв2376100 0.1 1021104
03:00+12в1282100 0.1 102162
06:00+11в2382100 0.0 1021104
09:00+12всв3577100 0.0 1022334
12:00+14всв456279 0.0 1022734
15:00+15всв555787 0.0 10221070
18:00+12всв3574100 0.0 1022364
21:00+11в3680100 0.0 1022321
23 апреля, пт
пт2300:00+10с2393100 1.6 1022144
03:00+10зсз1395100 5.4 1022177
06:00+10з2596100 3.8 1024325
09:00+13сз357496 6.3 1025843
12:00+15з235592 0.1 10241226
15:00+19зюз13415 0.1 10221858
18:00+17в22535 0.0 102115
21:00+12ююв22677 0.0 102111
24 апреля, сб
сб2400:00+10ююв1173100 0.0 102011
03:00+11з1171100 0.0 101910
06:00+11ююв0073100 0.0 102010
09:00+15юв2359100 0.0 1019432
12:00+18вюв334868 0.0 10181199
15:00+20всв32446 0.0 10171607
18:00+18всв235772 0.0 101841
21:00+16всв1154100 0.0 101915
25 апреля, вс
вс2500:00+14с2263100 0.0 101921
03:00+14ссз3567100 0.0 1019139
06:00+12ссз478688 0.0 1020311
09:00+14ссв3378100 0.0 1020718
12:00+17св3360100 0.1 10181237
15:00+18в2355100 0.1 10161319
18:00+16ссз2265100 0.0 101641
21:00+13ссв61078100 0.0 1017509
26 апреля, пн
пн2600:00+11ссз3674100 0.0 1017429
03:00+11ссз3478100 0.0 1016352
06:00+10с3480100 0.0 1016342
09:00+11всв348199 0.0 1015556
12:00+14в2268100 0.0 10141016
15:00+13св4474100 0.1 1013582
18:00+12ссз4780100 0.0 1014336
21:00+10ссз2695100 2.6 1017359